Tracking 19794 objects as of 22-Jul-2019
HD Live streaming from Space Station
objects crossing your sky now

THORAD AGENA D DEB

Track THORAD AGENA D DEB now!
10-day predictions


NORAD ID: 4741
Int'l Code: 1970-025CQ
Perigee: 1,078.2 km
Apogee: 2,351.0 km
Inclination: 100.3 °
Period: 120.6 minutes
Semi major axis: 8085 km
RCS: 0.0817 m2 (small)
Launch date: April 8, 1970
Source: United States (US)
Launch site: AIR FORCE WESTERN TEST RANGE (AFWTR)

Note: This is SATELLITE DEBRIS
aabbcc
Your satellite tracking list
Your tracking list is empty




NASA's NSSDC Master Catalog

Two Line Element Set (TLE):
1  4741U 70025CQ  19201.62937147 -.00000364 +00000-0 -18183-2 0  9990
2  4741 100.2800 081.5484 0787116 239.1173 141.6609 11.94083547147938
Source of the keplerian elements: AFSPC